| time (UTC) | temp F | wind direction | speed MPH | gust MPH | rain 1hr in | rain 24hr in | rain mn in | humidity % | barometer mb |
| 20260902113052 | 77 | 0 | 0.0 | 0.0 | 0.00 | 0.00 | 0.00 | 75 | 1015.7 |
| 20260902112524 | 77 | 0 | 0.0 | 0.0 | 0.00 | 0.00 | 0.00 | 75 | 1015.6 |
| 20260902112024 | 77 | 0 | 0.0 | 0.0 | 0.00 | 0.00 | 0.00 | 75 | 1015.7 |
| 20260902111546 | 77 | 0 | 0.0 | 0.0 | 0.00 | 0.00 | 0.00 | 75 | 1015.6 |
| 20260902111026 | 78 | 0 | 0.0 | 0.0 | 0.00 | 0.00 | 0.00 | 74 | 1015.8 |
| 20260902110524 | 78 | 0 | 0.0 | 0.0 | 0.00 | 0.00 | 0.00 | 74 | 1015.8 |
| 20260902110042 | 78 | 0 | 0.0 | 0.0 | 0.00 | 0.00 | 0.00 | 73 | 1015.8 |
| 20260902105519 | 78 | 0 | 0.0 | 0.0 | 0.00 | 0.00 | 0.00 | 73 | 1015.6 |
| 20260902105023 | 78 | 0 | 0.0 | 0.0 | 0.00 | 0.00 | 0.00 | 73 | 1015.6 |
| 20260902104559 | 78 | 0 | 0.0 | 0.0 | 0.00 | 0.00 | 0.00 | 74 | 1015.6 |
| 20260902104019 | 78 | 0 | 0.0 | 0.0 | 0.00 | 0.00 | 0.00 | 74 | 1015.7 |
| 20260902103529 | 78 | 0 | 0.0 | 0.0 | 0.00 | 0.00 | 0.00 | 74 | 1015.5 |
| 20260902103041 | 78 | 0 | 0.0 | 0.0 | 0.00 | 0.00 | 0.00 | 74 | 1015.4 |
| 20260902102521 | 78 | 0 | 0.0 | 0.0 | 0.00 | 0.00 | 0.00 | 74 | 1015.4 |
| 20260902102024 | 78 | 0 | 0.0 | 0.0 | 0.00 | 0.00 | 0.00 | 74 | 1015.5 |
| 20260902101548 | 78 | 0 | 0.0 | 0.0 | 0.00 | 0.00 | 0.00 | 74 | 1015.4 |
| 20260902101024 | 78 | 0 | 0.0 | 0.0 | 0.00 | 0.00 | 0.00 | 74 | 1015.6 |
| 20260902100526 | 78 | 0 | 0.0 | 0.0 | 0.00 | 0.00 | 0.00 | 74 | 1015.6 |
| 20260902100042 | 78 | 0 | 0.0 | 0.0 | 0.00 | 0.00 | 0.00 | 74 | 1015.5 |
| 20260902095519 | 78 | 0 | 0.0 | 0.0 | 0.00 | 0.00 | 0.00 | 74 | 1015.6 |
| 20260902095020 | 78 | 0 | 0.0 | 0.0 | 0.00 | 0.00 | 0.00 | 74 | 1015.5 |
| 20260902094541 | 78 | 0 | 0.0 | 0.0 | 0.00 | 0.00 | 0.00 | 73 | 1015.6 |
| 20260902094018 | 78 | 0 | 0.0 | 0.0 | 0.00 | 0.00 | 0.00 | 73 | 1015.7 |
| 20260902093520 | 79 | 0 | 0.0 | 0.0 | 0.00 | 0.00 | 0.00 | 73 | 1015.6 |
| 20260902093043 | 79 | 0 | 0.0 | 0.0 | 0.00 | 0.00 | 0.00 | 72 | 1015.6 |
| 20260902092523 | 80 | 0 | 0.0 | 0.0 | 0.00 | 0.00 | 0.00 | 71 | 1015.6 |
| 20260902092024 | 80 | 0 | 0.0 | 0.0 | 0.00 | 0.00 | 0.00 | 71 | 1015.6 |
| 20260902091544 | 80 | 0 | 0.0 | 0.0 | 0.00 | 0.00 | 0.00 | 71 | 1015.6 |
| 20260902091022 | 80 | 0 | 0.0 | 0.0 | 0.00 | 0.00 | 0.00 | 71 | 1015.6 |
| 20260902090524 | 80 | 0 | 0.0 | 0.0 | 0.00 | 0.00 | 0.00 | 70 | 1015.7 |
| 20260902090042 | 80 | 0 | 0.0 | 0.0 | 0.00 | 0.00 | 0.00 | 70 | 1015.7 |
| 20260902085520 | 80 | 0 | 0.0 | 0.0 | 0.00 | 0.00 | 0.00 | 70 | 1015.7 |
| 20260902085020 | 81 | 0 | 0.0 | 0.0 | 0.00 | 0.00 | 0.00 | 70 | 1015.7 |
| 20260902084541 | 81 | 0 | 0.0 | 0.0 | 0.00 | 0.00 | 0.00 | 70 | 1015.7 |
| 20260902084021 | 81 | 0 | 0.0 | 0.0 | 0.00 | 0.00 | 0.00 | 70 | 1015.6 |
| 20260902083518 | 81 | 0 | 0.0 | 0.0 | 0.00 | 0.00 | 0.00 | 69 | 1015.7 |
| 20260902083051 | 81 | 0 | 0.0 | 0.0 | 0.00 | 0.00 | 0.00 | 69 | 1015.7 |
| 20260902082520 | 82 | 0 | 0.0 | 0.0 | 0.00 | 0.00 | 0.00 | 69 | 1015.8 |
| 20260902082024 | 82 | 0 | 0.0 | 0.0 | 0.00 | 0.00 | 0.00 | 68 | 1015.8 |
| 20260902081545 | 82 | 0 | 0.0 | 0.0 | 0.00 | 0.00 | 0.00 | 68 | 1015.7 |
| 20260902081024 | 82 | 0 | 0.0 | 0.0 | 0.00 | 0.00 | 0.00 | 67 | 1015.7 |
| 20260902080522 | 83 | 0 | 0.0 | 0.0 | 0.00 | 0.00 | 0.00 | 67 | 1015.7 |
| 20260902080043 | 83 | 0 | 0.0 | 0.0 | 0.00 | 0.00 | 0.00 | 67 | 1015.7 |
| 20260902075521 | 83 | 0 | 0.0 | 0.0 | 0.00 | 0.00 | 0.00 | 66 | 1015.7 |
| 20260902075020 | 83 | 0 | 0.0 | 0.0 | 0.00 | 0.00 | 0.00 | 66 | 1015.6 |
| 20260902074541 | 83 | 0 | 0.0 | 0.0 | 0.00 | 0.00 | 0.00 | 66 | 1015.6 |
| 20260902074020 | 84 | 0 | 0.0 | 0.0 | 0.00 | 0.00 | 0.00 | 65 | 1015.7 |
| 20260902073520 | 84 | 0 | 0.0 | 0.0 | 0.00 | 0.00 | 0.00 | 65 | 1015.7 |
| 20260902073041 | 84 | 0 | 0.0 | 4.0 | 0.00 | 0.00 | 0.00 | 65 | 1015.6 |
| 20260902072520 | 85 | 0 | 0.0 | 7.0 | 0.00 | 0.00 | 0.00 | 64 | 1015.7 |
| 20260902072021 | 85 | 135 | 1.0 | 8.0 | 0.00 | 0.00 | 0.00 | 64 | 1015.7 |
| 20260902071546 | 85 | 0 | 2.0 | 10.0 | 0.00 | 0.00 | 0.00 | 64 | 1015.6 |
| 20260902071023 | 85 | 138 | 3.0 | 10.0 | 0.00 | 0.00 | 0.00 | 63 | 1015.6 |
| 20260902070522 | 85 | 151 | 3.0 | 11.0 | 0.00 | 0.00 | 0.00 | 63 | 1015.7 |
| 20260902070045 | 85 | 153 | 4.0 | 11.0 | 0.00 | 0.00 | 0.00 | 63 | 1015.8 |
| 20260902065525 | 85 | 151 | 4.0 | 11.0 | 0.00 | 0.00 | 0.00 | 63 | 1015.7 |
| 20260902065022 | 85 | 136 | 3.0 | 11.0 | 0.00 | 0.00 | 0.00 | 63 | 1015.7 |
| 20260902064545 | 85 | 187 | 5.0 | 10.0 | 0.00 | 0.00 | 0.00 | 63 | 1015.6 |
| 20260902064021 | 84 | 0 | 2.0 | 8.0 | 0.00 | 0.00 | 0.00 | 64 | 1015.6 |
| 20260902063520 | 84 | 152 | 1.0 | 8.0 | 0.00 | 0.00 | 0.00 | 63 | 1015.6 |
| 20260902063043 | 84 | 136 | 2.0 | 8.0 | 0.00 | 0.00 | 0.00 | 63 | 1015.6 |
| 20260902062521 | 85 | 142 | 2.0 | 8.0 | 0.00 | 0.00 | 0.00 | 63 | 1015.5 |
| 20260902062020 | 85 | 144 | 0.0 | 8.0 | 0.00 | 0.00 | 0.00 | 62 | 1015.5 |
| 20260902061546 | 85 | 142 | 4.0 | 8.0 | 0.00 | 0.00 | 0.00 | 62 | 1015.5 |
| 20260902061023 | 85 | 135 | 4.0 | 8.0 | 0.00 | 0.00 | 0.00 | 62 | 1015.3 |
| 20260902060523 | 85 | 147 | 3.0 | 8.0 | 0.00 | 0.00 | 0.00 | 61 | 1015.3 |
| 20260902060043 | 86 | 139 | 1.0 | 8.0 | 0.00 | 0.00 | 0.00 | 61 | 1015.2 |
| 20260902055521 | 86 | 144 | 4.0 | 9.0 | 0.00 | 0.00 | 0.00 | 60 | 1015.2 |
| 20260902055020 | 86 | 147 | 5.0 | 10.0 | 0.00 | 0.00 | 0.00 | 60 | 1015.2 |
| 20260902054542 | 86 | 135 | 6.0 | 10.0 | 0.00 | 0.00 | 0.00 | 59 | 1015.2 |
| 20260902054028 | 86 | 144 | 6.0 | 10.0 | 0.00 | 0.00 | 0.00 | 59 | 1015.1 |
| 20260902053523 | 86 | 161 | 6.0 | 9.0 | 0.00 | 0.00 | 0.00 | 59 | 1015.1 |
| 20260902053042 | 85 | 141 | 4.0 | 8.0 | 0.00 | 0.00 | 0.00 | 60 | 1015.1 |
| 20260902052521 | 84 | 140 | 4.0 | 8.0 | 0.00 | 0.00 | 0.00 | 63 | 1015.1 |
| 20260902052020 | 84 | 0 | 0.0 | 0.0 | 0.00 | 0.00 | 0.00 | 63 | 1015.1 |
| 20260902051554 | 84 | 0 | 0.0 | 0.0 | 0.00 | 0.00 | 0.00 | 61 | 1014.9 |
| 20260902051023 | 84 | 0 | 0.0 | 0.0 | 0.00 | 0.00 | 0.00 | 61 | 1014.8 |
| 20260902050526 | 84 | 0 | 0.0 | 0.0 | 0.00 | 0.00 | 0.00 | 60 | 1014.8 |
| 20260902050044 | 84 | 0 | 0.0 | 0.0 | 0.00 | 0.00 | 0.00 | 60 | 1014.8 |
| 20260902045521 | 84 | 0 | 0.0 | 0.0 | 0.00 | 0.00 | 0.00 | 60 | 1014.7 |
| 20260902045024 | 84 | 0 | 0.0 | 0.0 | 0.00 | 0.00 | 0.00 | 60 | 1014.8 |
| 20260902044547 | 85 | 0 | 0.0 | 0.0 | 0.00 | 0.00 | 0.00 | 60 | 1014.9 |
| 20260902044023 | 85 | 0 | 0.0 | 0.0 | 0.00 | 0.00 | 0.00 | 59 | 1014.9 |
| 20260902043520 | 85 | 0 | 0.0 | 0.0 | 0.00 | 0.00 | 0.00 | 59 | 1014.9 |
| 20260902043047 | 85 | 0 | 0.0 | 0.0 | 0.00 | 0.00 | 0.00 | 59 | 1014.9 |
| 20260902042521 | 85 | 0 | 0.0 | 0.0 | 0.00 | 0.00 | 0.00 | 59 | 1014.8 |
| 20260902042022 | 85 | 0 | 0.0 | 0.0 | 0.00 | 0.00 | 0.00 | 58 | 1014.8 |
| 20260902041546 | 85 | 0 | 0.0 | 0.0 | 0.00 | 0.00 | 0.00 | 58 | 1014.8 |
| 20260902041024 | 85 | 0 | 0.0 | 0.0 | 0.00 | 0.00 | 0.00 | 58 | 1014.8 |
| 20260902040527 | 85 | 0 | 0.0 | 0.0 | 0.00 | 0.00 | 0.00 | 58 | 1014.8 |
| 20260902040043 | 85 | 0 | 0.0 | 0.0 | 0.00 | 0.00 | 0.00 | 58 | 1014.8 |
| 20260902035521 | 85 | 0 | 0.0 | 0.0 | 0.00 | 0.00 | 0.00 | 58 | 1014.8 |
| 20260902035018 | 86 | 0 | 0.0 | 0.0 | 0.00 | 0.00 | 0.00 | 58 | 1014.9 |
| 20260902034542 | 86 | 0 | 0.0 | 0.0 | 0.00 | 0.00 | 0.00 | 58 | 1014.8 |
| 20260902034020 | 86 | 0 | 0.0 | 0.0 | 0.00 | 0.00 | 0.00 | 57 | 1014.9 |
| 20260902033520 | 86 | 0 | 0.0 | 0.0 | 0.00 | 0.00 | 0.00 | 57 | 1014.9 |
| 20260902033043 | 87 | 0 | 0.0 | 0.0 | 0.00 | 0.00 | 0.00 | 56 | 1014.9 |
| 20260902032521 | 87 | 0 | 0.0 | 0.0 | 0.00 | 0.00 | 0.00 | 56 | 1014.8 |
| 20260902032026 | 87 | 0 | 0.0 | 0.0 | 0.00 | 0.00 | 0.00 | 55 | 1014.6 |
| 20260902031542 | 87 | 0 | 0.0 | 0.0 | 0.00 | 0.00 | 0.00 | 55 | 1014.6 |
| 20260902031027 | 87 | 0 | 0.0 | 0.0 | 0.00 | 0.00 | 0.00 | 55 | 1014.7 |
| 20260902030521 | 88 | 0 | 0.0 | 0.0 | 0.00 | 0.00 | 0.00 | 54 | 1014.6 |
| 20260902030041 | 88 | 0 | 0.0 | 0.0 | 0.00 | 0.00 | 0.00 | 54 | 1014.5 |
| 20260902025523 | 88 | 0 | 0.0 | 0.0 | 0.00 | 0.00 | 0.00 | 53 | 1014.4 |
| 20260902025020 | 88 | 0 | 0.0 | 0.0 | 0.00 | 0.00 | 0.00 | 53 | 1014.3 |
| 20260902024541 | 88 | 0 | 0.0 | 0.0 | 0.00 | 0.00 | 0.00 | 53 | 1014.2 |
| 20260902024020 | 89 | 0 | 0.0 | 2.0 | 0.00 | 0.00 | 0.00 | 53 | 1014.2 |
| 20260902023528 | 89 | 0 | 0.0 | 4.0 | 0.00 | 0.00 | 0.00 | 53 | 1014.1 |
| 20260902023054 | 89 | 0 | 0.0 | 4.0 | 0.00 | 0.00 | 0.00 | 53 | 1014.1 |
| 20260902022524 | 89 | 128 | 2.0 | 4.0 | 0.00 | 0.00 | 0.00 | 52 | 1013.9 |
| 20260902022029 | 89 | 126 | 1.0 | 4.0 | 0.00 | 0.00 | 0.00 | 52 | 1013.9 |
| 20260902021542 | 89 | 127 | 1.0 | 4.0 | 0.00 | 0.00 | 0.00 | 51 | 1013.8 |
| 20260902021021 | 90 | 129 | 1.0 | 4.0 | 0.00 | 0.00 | 0.00 | 51 | 1013.7 |
| 20260902020522 | 90 | 0 | 1.0 | 5.0 | 0.00 | 0.00 | 0.00 | 51 | 1013.7 |
| 20260902020041 | 90 | 130 | 2.0 | 7.0 | 0.00 | 0.00 | 0.00 | 51 | 1013.6 |
| 20260902015524 | 90 | 130 | 2.0 | 7.0 | 0.00 | 0.00 | 0.00 | 50 | 1013.5 |
| 20260902015024 | 91 | 127 | 3.0 | 6.0 | 0.00 | 0.00 | 0.00 | 50 | 1013.4 |
| 20260902014547 | 91 | 142 | 3.0 | 6.0 | 0.00 | 0.00 | 0.00 | 50 | 1013.4 |
| 20260902014024 | 91 | 130 | 3.0 | 5.0 | 0.00 | 0.00 | 0.00 | 50 | 1013.3 |
| 20260902013524 | 91 | 125 | 3.0 | 7.0 | 0.00 | 0.00 | 0.00 | 49 | 1013.3 |
| 20260902013044 | 91 | 138 | 3.0 | 7.0 | 0.00 | 0.00 | 0.00 | 49 | 1013.2 |
| 20260902012522 | 92 | 144 | 3.0 | 7.0 | 0.00 | 0.00 | 0.00 | 49 | 1013.2 |
| 20260902012022 | 92 | 175 | 3.0 | 8.0 | 0.00 | 0.00 | 0.00 | 48 | 1013.1 |
| 20260902011551 | 92 | 145 | 4.0 | 8.0 | 0.00 | 0.00 | 0.00 | 48 | 1013.1 |
| 20260902011022 | 93 | 137 | 4.0 | 10.0 | 0.00 | 0.00 | 0.00 | 48 | 1013.0 |
| 20260902010525 | 93 | 152 | 4.0 | 10.0 | 0.00 | 0.00 | 0.00 | 48 | 1013.1 |
| 20260902010040 | 93 | 142 | 5.0 | 10.0 | 0.00 | 0.00 | 0.00 | 47 | 1013.0 |
| 20260902005523 | 93 | 125 | 3.0 | 7.0 | 0.00 | 0.00 | 0.00 | 46 | 1013.1 |
| 20260902005024 | 94 | 101 | 3.0 | 9.0 | 0.00 | 0.00 | 0.00 | 46 | 1013.0 |
| 20260902004552 | 94 | 121 | 3.0 | 9.0 | 0.00 | 0.00 | 0.00 | 46 | 1013.0 |
| 20260902004032 | 94 | 128 | 3.0 | 9.0 | 0.00 | 0.00 | 0.00 | 45 | 1013.1 |
| 20260902003523 | 95 | 105 | 5.0 | 9.0 | 0.00 | 0.00 | 0.00 | 45 | 1013.1 |
| 20260902003049 | 95 | 88 | 4.0 | 11.0 | 0.00 | 0.00 | 0.00 | 44 | 1013.1 |
| 20260902002523 | 95 | 130 | 3.0 | 11.0 | 0.00 | 0.00 | 0.00 | 44 | 1013.2 |
| 20260902002023 | 95 | 99 | 4.0 | 11.0 | 0.00 | 0.00 | 0.00 | 44 | 1013.3 |
| 20260902001541 | 95 | 136 | 4.0 | 9.0 | 0.00 | 0.00 | 0.00 | 44 | 1013.3 |
| 20260902001021 | 96 | 115 | 4.0 | 10.0 | 0.00 | 0.00 | 0.00 | 43 | 1013.2 |
| 20260902000521 | 96 | 122 | 5.0 | 10.0 | 0.00 | 0.00 | 0.00 | 43 | 1013.3 |
| 20260902000043 | 96 | 103 | 5.0 | 10.0 | 0.00 | 0.00 | 0.00 | 42 | 1013.1 |
| 20260901235521 | 96 | 116 | 6.0 | 10.0 | 0.00 | 0.00 | 0.00 | 42 | 1013.4 |
| 20260901235024 | 96 | 109 | 3.0 | 11.0 | 0.00 | 0.00 | 0.00 | 43 | 1013.4 |
| 20260901234546 | 96 | 111 | 7.0 | 11.0 | 0.00 | 0.00 | 0.00 | 42 | 1013.4 |
| 20260901234024 | 96 | 147 | 6.0 | 13.0 | 0.00 | 0.00 | 0.00 | 43 | 1013.4 |
| 20260901233530 | 96 | 139 | 6.0 | 13.0 | 0.00 | 0.00 | 0.00 | 42 | 1013.5 |
| 20260901233048 | 97 | 128 | 6.0 | 13.0 | 0.00 | 0.00 | 0.00 | 42 | 1013.5 |
| 20260901232525 | 97 | 150 | 4.0 | 11.0 | 0.00 | 0.00 | 0.00 | 42 | 1013.4 |
| 20260901232024 | 97 | 133 | 5.0 | 11.0 | 0.00 | 0.00 | 0.00 | 41 | 1013.6 |
| 20260901231609 | 97 | 62 | 4.0 | 9.0 | 0.00 | 0.00 | 0.00 | 41 | 1013.5 |
| 20260901231021 | 97 | 101 | 4.0 | 10.0 | 0.00 | 0.00 | 0.00 | 42 | 1013.4 |
| 20260901230526 | 97 | 147 | 6.0 | 12.0 | 0.00 | 0.00 | 0.00 | 41 | 1013.5 |
| 20260901225524 | 97 | 137 | 5.0 | 11.0 | 0.00 | 0.00 | 0.00 | 42 | 1013.6 |
| 20260901225024 | 96 | 95 | 4.0 | 14.0 | 0.00 | 0.00 | 0.00 | 42 | 1013.6 |
| 20260901224548 | 97 | 103 | 4.0 | 14.0 | 0.00 | 0.00 | 0.00 | 42 | 1013.7 |
| 20260901224024 | 97 | 98 | 7.0 | 14.0 | 0.00 | 0.00 | 0.00 | 41 | 1013.7 |
| 20260901223524 | 97 | 107 | 6.0 | 13.0 | 0.00 | 0.00 | 0.00 | 42 | 1013.6 |
| 20260901223045 | 97 | 101 | 4.0 | 13.0 | 0.00 | 0.00 | 0.00 | 41 | 1013.7 |
| 20260901222525 | 98 | 154 | 5.0 | 13.0 | 0.00 | 0.00 | 0.00 | 41 | 1013.7 |
| 20260901222022 | 98 | 123 | 5.0 | 10.0 | 0.00 | 0.00 | 0.00 | 42 | 1013.7 |
| 20260901221608 | 98 | 121 | 5.0 | 10.0 | 0.00 | 0.00 | 0.00 | 42 | 1013.8 |
| 20260901221022 | 98 | 139 | 4.0 | 9.0 | 0.00 | 0.00 | 0.00 | 42 | 1013.8 |
| 20260901220524 | 98 | 143 | 3.0 | 9.0 | 0.00 | 0.00 | 0.00 | 42 | 1013.8 |
| 20260901220053 | 98 | 101 | 3.0 | 10.0 | 0.00 | 0.00 | 0.00 | 42 | 1013.8 |
| 20260901215518 | 97 | 146 | 6.0 | 11.0 | 0.00 | 0.00 | 0.00 | 41 | 1013.9 |
| 20260901215024 | 98 | 136 | 5.0 | 11.0 | 0.00 | 0.00 | 0.00 | 42 | 1014.0 |
| 20260901214540 | 98 | 91 | 6.0 | 13.0 | 0.00 | 0.00 | 0.00 | 43 | 1014.0 |
| 20260901214024 | 98 | 142 | 8.0 | 13.0 | 0.00 | 0.00 | 0.00 | 41 | 1014.1 |
| 20260901213525 | 98 | 77 | 6.0 | 13.0 | 0.00 | 0.00 | 0.00 | 42 | 1014.0 |
| 20260901213103 | 98 | 103 | 5.0 | 11.0 | 0.00 | 0.00 | 0.00 | 42 | 1014.0 |
| 20260901212523 | 98 | 175 | 3.0 | 11.0 | 0.00 | 0.00 | 0.00 | 43 | 1014.0 |
| 20260901212024 | 98 | 111 | 4.0 | 10.0 | 0.00 | 0.00 | 0.00 | 42 | 1013.9 |
| 20260901211542 | 98 | 155 | 5.0 | 11.0 | 0.00 | 0.00 | 0.00 | 41 | 1014.0 |
| 20260901211025 | 98 | 133 | 4.0 | 12.0 | 0.00 | 0.00 | 0.00 | 43 | 1014.2 |
| 20260901210530 | 98 | 51 | 3.0 | 12.0 | 0.00 | 0.00 | 0.00 | 43 | 1014.2 |
| 20260901210051 | 98 | 86 | 6.0 | 12.0 | 0.00 | 0.00 | 0.00 | 43 | 1014.3 |
| 20260901205525 | 98 | 107 | 5.0 | 11.0 | 0.00 | 0.00 | 0.00 | 43 | 1014.3 |
| 20260901205029 | 99 | 145 | 5.0 | 11.0 | 0.00 | 0.00 | 0.00 | 41 | 1014.3 |
| 20260901204601 | 99 | 160 | 1.0 | 11.0 | 0.00 | 0.00 | 0.00 | 41 | 1014.4 |
| 20260901204025 | 99 | 121 | 4.0 | 11.0 | 0.00 | 0.00 | 0.00 | 41 | 1014.5 |
| 20260901203526 | 99 | 185 | 5.0 | 12.0 | 0.00 | 0.00 | 0.00 | 41 | 1014.5 |
| 20260901203046 | 99 | 130 | 5.0 | 13.0 | 0.00 | 0.00 | 0.00 | 40 | 1014.6 |
| 20260901202523 | 99 | 186 | 3.0 | 13.0 | 0.00 | 0.00 | 0.00 | 42 | 1014.6 |
| 20260901202023 | 99 | 182 | 5.0 | 13.0 | 0.00 | 0.00 | 0.00 | 44 | 1014.7 |
| 20260901201542 | 99 | 0 | 4.0 | 11.0 | 0.00 | 0.00 | 0.00 | 42 | 1014.6 |
| 20260901201022 | 98 | 157 | 1.0 | 11.0 | 0.00 | 0.00 | 0.00 | 43 | 1014.9 |
| 20260901200521 | 98 | 126 | 3.0 | 11.0 | 0.00 | 0.00 | 0.00 | 42 | 1014.9 |
| 20260901200108 | 99 | 108 | 4.0 | 11.0 | 0.00 | 0.00 | 0.00 | 41 | 1015.0 |
| 20260901195524 | 98 | 192 | 3.0 | 12.0 | 0.00 | 0.00 | 0.00 | 44 | 1015.0 |
| 20260901195023 | 97 | 134 | 5.0 | 12.0 | 0.00 | 0.00 | 0.00 | 45 | 1015.0 |
| 20260901194604 | 96 | 0 | 1.0 | 10.0 | 0.00 | 0.00 | 0.00 | 46 | 1015.0 |
| 20260901194027 | 97 | 0 | 0.0 | 11.0 | 0.00 | 0.00 | 0.00 | 44 | 1015.2 |
| 20260901193525 | 97 | 82 | 3.0 | 11.0 | 0.00 | 0.00 | 0.00 | 44 | 1015.2 |
| 20260901193050 | 97 | 124 | 5.0 | 10.0 | 0.00 | 0.00 | 0.00 | 44 | 1015.3 |
| 20260901192526 | 97 | 98 | 5.0 | 10.0 | 0.00 | 0.00 | 0.00 | 45 | 1015.4 |
| 20260901192022 | 97 | 137 | 5.0 | 13.0 | 0.00 | 0.00 | 0.00 | 46 | 1015.4 |
| 20260901191621 | 97 | 100 | 5.0 | 13.0 | 0.00 | 0.00 | 0.00 | 45 | 1015.5 |
| 20260901191023 | 98 | 146 | 2.0 | 12.0 | 0.00 | 0.00 | 0.00 | 44 | 1015.4 |
| 20260901190524 | 98 | 116 | 2.0 | 10.0 | 0.00 | 0.00 | 0.00 | 45 | 1015.5 |
| 20260901190041 | 97 | 190 | 2.0 | 11.0 | 0.00 | 0.00 | 0.00 | 44 | 1015.7 |
| 20260901185523 | 97 | 198 | 4.0 | 12.0 | 0.00 | 0.00 | 0.00 | 45 | 1015.7 |
| 20260901185025 | 97 | 134 | 4.0 | 12.0 | 0.00 | 0.00 | 0.00 | 47 | 1015.8 |
| 20260901184547 | 97 | 117 | 4.0 | 12.0 | 0.00 | 0.00 | 0.00 | 45 | 1015.8 |
| 20260901184024 | 96 | 149 | 4.0 | 11.0 | 0.00 | 0.00 | 0.00 | 47 | 1016.0 |
| 20260901183523 | 95 | 112 | 2.0 | 11.0 | 0.00 | 0.00 | 0.00 | 47 | 1016.1 |
| 20260901183050 | 96 | 149 | 5.0 | 12.0 | 0.00 | 0.00 | 0.00 | 46 | 1016.2 |
| 20260901182524 | 97 | 145 | 7.0 | 12.0 | 0.00 | 0.00 | 0.00 | 46 | 1016.4 |
| 20260901182024 | 96 | 144 | 4.0 | 12.0 | 0.00 | 0.00 | 0.00 | 46 | 1016.4 |
| 20260901181550 | 96 | 117 | 6.0 | 12.0 | 0.00 | 0.00 | 0.00 | 46 | 1016.4 |
| 20260901181021 | 96 | 0 | 1.0 | 9.0 | 0.00 | 0.00 | 0.00 | 47 | 1016.4 |
| 20260901180523 | 96 | 190 | 5.0 | 11.0 | 0.00 | 0.00 | 0.00 | 47 | 1016.5 |
| 20260901180047 | 96 | 0 | 1.0 | 12.0 | 0.00 | 0.00 | 0.00 | 48 | 1016.6 |
| 20260901175524 | 96 | 139 | 4.0 | 12.0 | 0.00 | 0.00 | 0.00 | 47 | 1016.7 |
| 20260901175024 | 96 | 155 | 5.0 | 12.0 | 0.00 | 0.00 | 0.00 | 48 | 1016.7 |
| 20260901174545 | 95 | 142 | 2.0 | 7.0 | 0.00 | 0.00 | 0.00 | 49 | 1016.7 |
| 20260901174023 | 95 | 146 | 2.0 | 8.0 | 0.00 | 0.00 | 0.00 | 49 | 1016.8 |
| 20260901173522 | 95 | 174 | 4.0 | 9.0 | 0.00 | 0.00 | 0.00 | 51 | 1017.0 |
| 20260901173043 | 94 | 0 | 2.0 | 9.0 | 0.00 | 0.00 | 0.00 | 50 | 1016.9 |
| 20260901172524 | 95 | 138 | 4.0 | 13.0 | 0.00 | 0.00 | 0.00 | 48 | 1017.0 |
| 20260901172025 | 94 | 165 | 5.0 | 13.0 | 0.00 | 0.00 | 0.00 | 49 | 1017.2 |
| 20260901171559 | 94 | 144 | 4.0 | 11.0 | 0.00 | 0.00 | 0.00 | 51 | 1017.2 |
| 20260901171022 | 94 | 140 | 2.0 | 10.0 | 0.00 | 0.00 | 0.00 | 51 | 1017.3 |
| 20260901170523 | 93 | 135 | 5.0 | 10.0 | 0.00 | 0.00 | 0.00 | 53 | 1017.4 |
| 20260901170052 | 94 | 153 | 3.0 | 10.0 | 0.00 | 0.00 | 0.00 | 53 | 1017.4 |
| 20260901165522 | 95 | 119 | 4.0 | 9.0 | 0.00 | 0.00 | 0.00 | 49 | 1017.4 |
| 20260901165023 | 94 | 141 | 1.0 | 9.0 | 0.00 | 0.00 | 0.00 | 51 | 1017.5 |
| 20260901164542 | 94 | 0 | 1.0 | 9.0 | 0.00 | 0.00 | 0.00 | 51 | 1017.5 |
| 20260901164025 | 94 | 121 | 2.0 | 7.0 | 0.00 | 0.00 | 0.00 | 53 | 1017.7 |
| 20260901163524 | 93 | 205 | 2.0 | 5.0 | 0.00 | 0.00 | 0.00 | 52 | 1017.6 |
| 20260901163045 | 93 | 210 | 1.0 | 7.0 | 0.00 | 0.00 | 0.00 | 53 | 1017.7 |
| 20260901162524 | 93 | 203 | 2.0 | 7.0 | 0.00 | 0.00 | 0.00 | 54 | 1017.6 |
| 20260901162027 | 93 | 138 | 3.0 | 8.0 | 0.00 | 0.00 | 0.00 | 53 | 1017.7 |
| 20260901161551 | 93 | 196 | 2.0 | 8.0 | 0.00 | 0.00 | 0.00 | 53 | 1017.8 |
| 20260901161023 | 92 | 176 | 1.0 | 7.0 | 0.00 | 0.00 | 0.00 | 54 | 1017.7 |
| 20260901160525 | 92 | 165 | 2.0 | 7.0 | 0.00 | 0.00 | 0.00 | 56 | 1017.8 |
| 20260901155521 | 91 | 195 | 2.0 | 11.0 | 0.00 | 0.00 | 0.00 | 57 | 1017.7 |
| 20260901155024 | 91 | 186 | 4.0 | 11.0 | 0.00 | 0.00 | 0.00 | 56 | 1017.7 |
| 20260901154541 | 90 | 183 | 3.0 | 7.0 | 0.00 | 0.00 | 0.00 | 57 | 1017.8 |
| 20260901154025 | 90 | 185 | 2.0 | 7.0 | 0.00 | 0.00 | 0.00 | 59 | 1017.8 |
| 20260901153524 | 90 | 192 | 3.0 | 7.0 | 0.00 | 0.00 | 0.00 | 59 | 1017.8 |
| 20260901153052 | 89 | 200 | 1.0 | 6.0 | 0.00 | 0.00 | 0.00 | 60 | 1017.7 |
| 20260901152527 | 89 | 199 | 1.0 | 6.0 | 0.00 | 0.00 | 0.00 | 61 | 1017.7 |
| 20260901152024 | 88 | 200 | 2.0 | 6.0 | 0.00 | 0.00 | 0.00 | 60 | 1017.7 |
| 20260901151548 | 88 | 213 | 1.0 | 6.0 | 0.00 | 0.00 | 0.00 | 61 | 1017.6 |
| 20260901151023 | 88 | 0 | 2.0 | 6.0 | 0.00 | 0.00 | 0.00 | 61 | 1017.7 |
| 20260901150521 | 88 | 200 | 2.0 | 5.0 | 0.00 | 0.00 | 0.00 | 61 | 1017.7 |
| 20260901150050 | 88 | 199 | 1.0 | 6.0 | 0.00 | 0.00 | 0.00 | 62 | 1017.7 |
| 20260901145524 | 87 | 0 | 1.0 | 6.0 | 0.00 | 0.00 | 0.00 | 63 | 1017.7 |
| 20260901145022 | 87 | 0 | 1.0 | 6.0 | 0.00 | 0.00 | 0.00 | 63 | 1017.7 |
| 20260901144552 | 87 | 197 | 1.0 | 6.0 | 0.00 | 0.00 | 0.00 | 63 | 1017.7 |
| 20260901144024 | 87 | 172 | 1.0 | 6.0 | 0.00 | 0.00 | 0.00 | 63 | 1017.8 |
| 20260901143524 | 86 | 187 | 1.0 | 5.0 | 0.00 | 0.00 | 0.00 | 63 | 1017.9 |
| 20260901143048 | 86 | 128 | 1.0 | 6.0 | 0.00 | 0.00 | 0.00 | 63 | 1017.9 |
| 20260901142524 | 86 | 150 | 2.0 | 6.0 | 0.00 | 0.00 | 0.00 | 64 | 1018.0 |
| 20260901142025 | 85 | 190 | 2.0 | 5.0 | 0.00 | 0.00 | 0.00 | 64 | 1018.0 |
| 20260901141541 | 85 | 190 | 2.0 | 5.0 | 0.00 | 0.00 | 0.00 | 64 | 1017.8 |
| 20260901141022 | 85 | 0 | 1.0 | 7.0 | 0.00 | 0.00 | 0.00 | 65 | 1017.8 |
| 20260901140518 | 85 | 164 | 1.0 | 7.0 | 0.00 | 0.00 | 0.00 | 65 | 1017.8 |
| 20260901140118 | 84 | 193 | 1.0 | 5.0 | 0.00 | 0.00 | 0.00 | 65 | 1017.8 |
| 20260901135521 | 84 | 186 | 1.0 | 5.0 | 0.00 | 0.00 | 0.00 | 65 | 1017.8 |
| 20260901135026 | 84 | 157 | 1.0 | 3.0 | 0.00 | 0.00 | 0.00 | 66 | 1017.7 |
| 20260901134550 | 83 | 0 | 0.0 | 3.0 | 0.00 | 0.00 | 0.00 | 66 | 1017.7 |
| 20260901134031 | 83 | 0 | 0.0 | 3.0 | 0.00 | 0.00 | 0.00 | 66 | 1017.7 |
| 20260901133523 | 83 | 0 | 0.0 | 3.0 | 0.00 | 0.00 | 0.00 | 67 | 1017.7 |
| 20260901133048 | 82 | 0 | 1.0 | 3.0 | 0.00 | 0.00 | 0.00 | 67 | 1017.6 |
| 20260901132526 | 82 | 0 | 0.0 | 0.0 | 0.00 | 0.00 | 0.00 | 68 | 1017.6 |
| 20260901132026 | 81 | 0 | 0.0 | 0.0 | 0.00 | 0.00 | 0.00 | 69 | 1017.6 |
| 20260901131543 | 80 | 0 | 0.0 | 0.0 | 0.00 | 0.00 | 0.00 | 70 | 1017.5 |
| 20260901131024 | 80 | 0 | 0.0 | 0.0 | 0.00 | 0.00 | 0.00 | 71 | 1017.5 |
| 20260901130522 | 79 | 0 | 0.0 | 0.0 | 0.00 | 0.00 | 0.00 | 72 | 1017.4 |
| 20260901130044 | 78 | 0 | 0.0 | 0.0 | 0.00 | 0.00 | 0.00 | 73 | 1017.5 |
| 20260901125518 | 78 | 0 | 0.0 | 0.0 | 0.00 | 0.00 | 0.00 | 74 | 1017.4 |
| 20260901125021 | 77 | 0 | 0.0 | 3.0 | 0.00 | 0.00 | 0.00 | 74 | 1017.4 |
| 20260901124542 | 76 | 0 | 0.0 | 3.0 | 0.00 | 0.00 | 0.00 | 75 | 1017.3 |
| 20260901124025 | 76 | 139 | 1.0 | 3.0 | 0.00 | 0.00 | 0.00 | 76 | 1017.1 |
| 20260901123528 | 75 | 0 | 0.0 | 0.0 | 0.00 | 0.00 | 0.00 | 77 | 1017.0 |
| 20260901123047 | 75 | 0 | 0.0 | 0.0 | 0.00 | 0.00 | 0.00 | 77 | 1017.0 |
| 20260901122524 | 75 | 0 | 0.0 | 0.0 | 0.00 | 0.00 | 0.00 | 76 | 1016.9 |
| 20260901122023 | 75 | 0 | 0.0 | 0.0 | 0.00 | 0.00 | 0.00 | 76 | 1016.8 |
| 20260901121541 | 75 | 0 | 0.0 | 0.0 | 0.00 | 0.00 | 0.00 | 75 | 1016.7 |
| 20260901121021 | 75 | 0 | 0.0 | 0.0 | 0.00 | 0.00 | 0.00 | 74 | 1016.7 |
| 20260901120521 | 75 | 0 | 0.0 | 0.0 | 0.00 | 0.00 | 0.00 | 74 | 1016.6 |
| 20260901120040 | 75 | 0 | 0.0 | 0.0 | 0.00 | 0.00 | 0.00 | 74 | 1016.6 |
| 20260901115527 | 76 | 0 | 0.0 | 0.0 | 0.00 | 0.00 | 0.00 | 73 | 1016.7 |
| 20260901115024 | 76 | 0 | 0.0 | 0.0 | 0.00 | 0.00 | 0.00 | 73 | 1016.7 |
| 20260901114550 | 76 | 0 | 0.0 | 0.0 | 0.00 | 0.00 | 0.00 | 74 | 1016.6 |
| 20260901114024 | 76 | 0 | 0.0 | 0.0 | 0.00 | 0.00 | 0.00 | 73 | 1016.6 |
| 20260901113528 | 76 | 0 | 0.0 | 0.0 | 0.00 | 0.00 | 0.00 | 73 | 1016.6 |